Starlink 5865

operational
NORAD ID: 57053 Int'l Des: 2023-088 Owner: SPXS Country: US Constellation: starlink
LEOCIRCULAR

关于 Starlink 5865

正在加载描述...

实时位置

正在加载3D地球...

即将过境

高度历史

Altitude vs Time

uPlot chart will show altitude changes over time

两行轨道根数

1 57053U 23088F 25353.88016817 -.00000199 00000-0 29212-6 0 9990
2 57053 43.0017 181.1917 0000385 332.3612 27.7210 15.02527763138369
Epoch: Dec 19, 2025 • Age: 9 hours

当前状态

高度 562.6 km
速度 7.58 km/s
星下点 -17.94°S, 28.92°W
发射日期 Jun 22, 2023
运行时间 2.4 years
类型 internet

技术详情

分类 Payload
质量 305.00 kg
干质量 290.00 kg
总质量 305.00 kg
长度 0.20 m
直径 2.80 m
跨度 9.00 m
形状 Box + pan
制造商 SPXS
平台类型 Starlink
阶段状态 In Orbit
所有者/国家 SPXS/US

大型星座

Loading constellations...